This is the latest recevied weather packets stored in our database for station/object WE8L. If no packets are shown the sender has not sent any weather packets the latest 10 day(s).
| Time | Temp. | Humidity | Pressure | Rain* | Wind** | Luminosity | Snow |
|---|---|---|---|---|---|---|---|
| 1777856290 | 15° C | 43% | 1015.1 hPa | 0 mm | - | 0 W/m² | - |
| 1777855987 | 15° C | 42% | 1015.2 hPa | 0 mm | - | 0 W/m² | - |
| 1777855684 | 15° C | 42% | 1015 hPa | 0 mm | - | 0 W/m² | - |
| 1777855382 | 15° C | 42% | 1015 hPa | 0 mm | - | 0 W/m² | - |
| 1777855078 | 15° C | 43% | 1015.1 hPa | 0 mm | - | 1 W/m² | - |
| 1777854775 | 15° C | 42% | 1015.1 hPa | 0 mm | - | 1 W/m² | - |
| 1777854471 | 15° C | 41% | 1015.3 hPa | 0 mm | - | 1 W/m² | - |
| 1777854168 | 15° C | 41% | 1015 hPa | 0 mm | - | 2 W/m² | - |
| 1777853866 | 15° C | 41% | 1015.2 hPa | 0 mm | - | 1 W/m² | - |
| 1777853563 | 15° C | 41% | 1015.3 hPa | 0 mm | - | 1 W/m² | - |
| 1777853260 | 15° C | 41% | 1015.2 hPa | 0 mm | - | 4 W/m² | - |
| 1777852957 | 15.56° C | 40% | 1015.2 hPa | 0 mm | - | 6 W/m² | - |
| 1777852655 | 15.56° C | 39% | 1015 hPa | 0 mm | - | 7 W/m² | - |
| 1777852351 | 15.56° C | 39% | 1014.9 hPa | 0 mm | - | 6 W/m² | - |
| 1777852049 | 15.56° C | 39% | 1014.9 hPa | 0 mm | - | 4 W/m² | - |
| 1777851747 | 15.56° C | 40% | 1015.2 hPa | 0 mm | - | 14 W/m² | - |
| 1777851444 | 15.56° C | 40% | 1015 hPa | 0 mm | - | 16 W/m² | - |
| 1777851139 | 15.56° C | 38% | 1015.1 hPa | 0 mm | - | 18 W/m² | - |
| 1777850837 | 15.56° C | 39% | 1015.1 hPa | 0 mm | - | 15 W/m² | - |
| 1777850534 | 15.56° C | 39% | 1015.2 hPa | 0 mm | - | 17 W/m² | - |
| 1777850233 | 15.56° C | 38% | 1015.2 hPa | 0 mm | - | 21 W/m² | - |
| 1777849928 | 15.56° C | 38% | 1015.4 hPa | 0 mm | - | 19 W/m² | - |
| 1777849625 | 16.11° C | 38% | 1015.5 hPa | 0 mm | - | 21 W/m² | - |
| 1777849322 | 16.11° C | 38% | 1015.7 hPa | 0 mm | - | 30 W/m² | - |
| 1777849020 | 16.11° C | 38% | 1015.7 hPa | 0 mm | - | 26 W/m² | - |
* Rain latest hour (hover to see other rain measurements)
** Current wind speed in m/s (hover to see current wind gust speed)